World > North America > United States > New York

Hourly Montebello, NY Regional Weather

Feedback E-mail the Weather

Latest News

Montebello, NY Weather Maps

°F °C°F °C
Montebello Weather Map
UTC Time: 5/21/2022, 03:01
Your Time:

Montebello, NY Regional Weather

Expires:202205210300;;302456
ASUS41 KALY 210210
RWRALY

NEW YORK STATE HOURLY WEATHER ROUNDUP
NATIONAL WEATHER SERVICE ALBANY NY
1000 PM EDT FRI MAY 20 2022

NOTE: "FAIR" INDICATES FEW OR NO CLOUDS BELOW 12,000 FEET WITH NO
SIGNIFICANT WEATHER AND/OR NO OBSTRUCTIONS TO VISIBILITY.


NYZ032-033-038>043-046>054-057>066-NYZ062>081-082-084-210300-
EAST

  
CITY           SKY/WX    TMP DP  RH WIND       PRES   REMARKS
ALBANY         MOCLDY    69  61  75 SE12G22   29.91R                  
GLENS FALLS    MOCLDY    69  60  73 S17G23    29.89R                  
POUGHKEEPSIE   MOCLDY    64  62  93 VRB3      29.93F                  
NEWBURGH       MOCLDY    63  63 100 S7        29.95R                  
MONTGOMERY     MOCLDY    62  61  96 CALM      29.94R                  
WHITE PLAINS   FOG       63  61  93 CALM      29.96R VSB 3/4          
ISLIP          CLOUDY    64  64 100 SE7       29.97R                  
NEW YORK CITY  CLOUDY    61  58  90 NE9       29.95S FOG              
CENTRAL PARK   FOG       64  63  96 NE3       29.98R VSB 1            
$$


SKY/WX - Weather  TMP - Temperature  DP - Dew Point  RH - Humidity
WIND - Wind Direction/Speed PRES - Barometric Pressure VSB - Visibility
WCI - Wind Chill Index E13G22 Wind - East Wind 13 mph/Gusts of 22 mph

Trending Headlines

Montebello Radar Loop



Montebello Quick Facts


National Two Day Weather Forecast


E-mail the Montebello Weather Forecast

Voice your opinion or tell us about page issues...